GW1560 Weather Reports


Display with metric or nautical units.
time (UTC)temp
F
wind
direction
speed
MPH
gust
MPH
rain 1hr
in
rain 24hr
in
rain mn
in
humidity
%
barometer
mb
20260510021538 48 227 1.0 7.0 0.00 0.58 0.58 97 1007.3
20260510020040 48 208 1.0 4.0 0.00 0.58 0.58 97 1007.1
20260510014540 48 238 1.0 4.0 0.00 0.58 0.58 97 1007.1
20260510013045 48 237 1.0 5.0 0.00 0.58 0.58 96 1007.1
20260510011539 48 250 1.0 5.0 0.00 0.58 0.58 96 1007.1
20260510010042 48 140 1.0 5.0 0.00 0.58 0.58 96 1006.8
20260510004540 49 221 1.0 6.0 0.00 0.58 0.58 96 1006.5
20260510003101 49 205 1.0 3.0 0.00 0.58 0.58 96 1006.6
20260510001536 49 221 1.0 3.0 0.00 0.58 0.58 96 1006.4
20260510000040 49 208 1.0 5.0 0.00 0.58 0.58 96 1006.4
20260509234544 50 190 1.0 4.0 0.00 0.58 0.58 96 1006.2
20260509233040 50 196 1.0 4.0 0.00 0.58 0.58 96 1005.9
20260509231538 50 201 2.0 6.0 0.00 0.58 0.58 96 1006.0
20260509230041 50 205 2.0 6.0 0.00 0.58 0.58 97 1006.0
20260509224549 51 221 1.0 5.0 0.00 0.58 0.58 97 1005.8
20260509223047 50 188 1.0 7.0 0.00 0.58 0.58 97 1005.8
20260509221538 51 0 2.0 8.0 0.00 0.58 0.58 97 1006.0
20260509220039 51 232 1.0 6.0 0.00 0.58 0.58 97 1005.9
20260509214542 51 170 2.0 9.0 0.00 0.58 0.58 97 1006.1
20260509213041 51 188 3.0 8.0 0.00 0.58 0.58 97 1006.1
20260509211534 51 195 3.0 8.0 0.00 0.58 0.58 97 1006.4
20260509210033 51 178 2.0 10.0 0.01 0.58 0.58 97 1006.1
20260509204539 50 205 2.0 12.0 0.02 0.58 0.58 97 1006.5
20260509203052 49 195 2.0 5.0 0.04 0.58 0.58 97 1006.6
20260509201539 49 212 1.0 6.0 0.07 0.58 0.58 97 1006.9
20260509200038 49 209 2.0 6.0 0.07 0.57 0.57 97 1006.9
20260509194542 49 185 2.0 7.0 0.07 0.56 0.56 97 1007.1
20260509193041 49 209 2.0 8.0 0.05 0.54 0.54 97 1007.1
20260509191538 49 178 2.0 9.0 0.02 0.51 0.51 97 1007.2
20260509190037 49 147 2.0 8.0 0.02 0.50 0.50 97 1007.2
20260509184544 49 196 1.0 6.0 0.01 0.49 0.49 97 1007.1
20260509183042 49 215 1.0 10.0 0.02 0.49 0.49 97 1007.2
20260509181603 49 164 2.0 6.0 0.02 0.48 0.48 97 1007.3
20260509180108 48 93 2.0 9.0 0.02 0.48 0.48 97 1007.3
20260509174540 49 190 2.0 7.0 0.02 0.48 0.48 97 1007.2
20260509173042 49 232 2.0 6.0 0.01 0.47 0.47 97 1007.1
20260509171551 49 178 2.0 4.0 0.01 0.46 0.46 96 1007.0
20260509170051 49 190 1.0 4.0 0.01 0.46 0.46 96 1007.1
20260509164540 50 51 1.0 5.0 0.01 0.46 0.46 97 1007.1
20260509163038 50 178 1.0 4.0 0.02 0.46 0.46 97 1007.2
20260509161541 49 191 1.0 4.0 0.03 0.45 0.45 97 1007.5
20260509160036 49 0 1.0 5.0 0.05 0.45 0.45 97 1007.6
20260509154538 49 173 1.0 5.0 0.07 0.46 0.45 97 1008.0
20260509153040 48 193 1.0 5.0 0.08 0.45 0.44 97 1008.0
20260509151540 48 215 1.0 9.0 0.08 0.43 0.42 97 1008.2
20260509150038 48 221 1.0 7.0 0.07 0.41 0.40 97 1008.6
20260509144534 47 205 1.0 7.0 0.06 0.40 0.38 96 1008.6
20260509143046 47 196 1.0 6.0 0.05 0.38 0.36 96 1008.3
20260509141545 47 214 1.0 4.0 0.05 0.36 0.34 97 1008.4
20260509140038 47 51 1.0 4.0 0.06 0.35 0.33 96 1008.3
20260509134534 46 158 1.0 4.0 0.07 0.34 0.32 96 1008.5
20260509133054 46 162 0.0 2.0 0.08 0.33 0.31 97 1008.5
20260509131541 46 164 0.0 3.0 0.08 0.31 0.29 96 1008.6
20260509130040 46 239 1.0 3.0 0.07 0.29 0.27 96 1008.5
20260509124538 46 0 1.0 6.0 0.06 0.27 0.25 96 1008.8
20260509123040 46 209 1.0 3.0 0.05 0.25 0.23 96 1008.7
20260509121543 45 196 1.0 3.0 0.05 0.23 0.21 96 1008.9
20260509120033 45 195 1.0 4.0 0.06 0.22 0.20 96 1008.9
20260509114540 45 205 1.0 4.0 0.09 0.21 0.19 96 1008.8
20260509113042 45 196 1.0 3.0 0.10 0.20 0.18 96 1008.8
20260509111539 44 153 0.0 2.0 0.08 0.18 0.16 96 1008.8
20260509110047 44 193 0.0 3.0 0.06 0.15 0.13 96 1008.8
20260509104559 44 195 1.0 6.0 0.03 0.12 0.10 96 1008.8
20260509103100 44 0 1.0 4.0 0.01 0.10 0.08 95 1008.7
20260509101540 44 248 0.0 6.0 0.01 0.10 0.08 95 1008.5
20260509100041 44 162 0.0 2.0 0.00 0.09 0.07 95 1008.6
20260509094546 44 0 0.0 2.0 0.01 0.10 0.07 95 1008.6
20260509093040 44 212 0.0 2.0 0.01 0.10 0.07 95 1008.5
20260509091544 44 0 0.0 2.0 0.01 0.10 0.07 95 1008.6
20260509090051 44 265 0.0 5.0 0.02 0.10 0.07 95 1008.8
20260509084539 44 193 0.0 3.0 0.01 0.10 0.06 94 1008.9
20260509083040 44 221 0.0 2.0 0.02 0.10 0.06 94 1009.0
20260509081550 44 0 0.0 2.0 0.04 0.10 0.06 94 1009.1
20260509080040 44 209 0.0 4.0 0.03 0.09 0.05 93 1009.3
20260509074538 44 221 0.0 4.0 0.04 0.11 0.05 93 1009.0
20260509073044 43 196 0.0 2.0 0.03 0.10 0.04 93 1009.1
20260509071550 43 0 0.0 2.0 0.02 0.08 0.02 92 1008.9
20260509070051 42 212 0.0 2.0 0.02 0.08 0.02 90 1009.1
20260509064542 42 178 0.0 1.0 0.01 0.07 0.01 88 1009.1
20260509063058 42 0 0.0 2.0 0.01 0.07 0.01 85 1009.3
20260509061601 43 221 0.0 2.0 0.00 0.06 0.00 82 1009.4
20260509060050 44 232 0.0 2.0 0.00 0.06 0.00 79 1009.5
20260509054540 44 205 0.0 2.0 0.00 0.06 0.00 78 1009.6
20260509053042 44 165 0.0 2.0 0.00 0.06 0.00 77 1009.6
20260509051541 44 93 0.0 2.0 0.00 0.06 0.00 75 1009.5
20260509050039 44 178 0.0 2.0 0.00 0.06 0.00 72 1009.7
20260509044536 44 0 0.0 2.0 0.00 0.06 0.00 72 1009.9
20260509043039 44 111 0.0 2.0 0.00 0.06 0.00 70 1010.0
20260509041540 44 146 0.0 2.0 0.00 0.06 0.00 68 1010.0
20260509040042 43 0 0.0 1.0 0.00 0.06 0.00 70 1009.8
20260509034538 43 162 0.0 2.0 0.00 0.06 0.06 71 1009.9
20260509033036 43 76 0.0 2.0 0.00 0.06 0.06 69 1010.2
20260509031541 43 51 1.0 2.0 0.00 0.06 0.06 68 1010.1
20260509030042 43 41 1.0 2.0 0.00 0.06 0.06 67 1010.1
20260509024540 43 0 0.0 2.0 0.00 0.06 0.06 66 1010.0
20260509023036 44 0 0.0 2.0 0.00 0.06 0.06 64 1010.1